OPTUS D1

Last updated on Tue Sep 22 2026 00:03:11 GMT+0000 (Coordinated Universal Time)

1 29495U 06043B 26264.51486285 -.00000185 00000+0 00000+0 0 9994 2 29495 3.2752 78.3867 0003655 95.8952 163.4651 1.00272496 73081
UTC large
Height (km)
Speed (km/s)
/
Latitude / Longitude
Inclination (degrees)
Orbital Period (minutes)
Azimuth
Elevation
Range (km)
Doppler Factor

Next 0 passes for location: London (51.5072 / 0.1276)

No passes found over London.
OPTUS D1